Location: Ponte Samoggia
(44.5667°N, 11.1333°E)
Time: 00:20:46
(UTC+00:00)

ATLAS CENTAUR R/B - Pass Details

Date: 26 May 2022
Orbit: 443 x 688 km, 64.6° (Epoch: 07 June)

Event Time Altitude Azimuth Distance (km) Brightness Sun altitude
Rises 00:09:22 0° 311° (NW) 3,041 5.5 -23.1°
Reaches altitude 10° 00:12:22 10° 293° (WNW) 2,096 4.3 -22.9°
Enters shadow 00:14:00 16° 275° (W) 1,732 3.7 -22.9°
